DECAYED
Showing default

XAIOXIANG-1 07, 44519 (Decayed)

Orbit data source: Space-Track

XAIOXIANG-1 07, 44519 was a payload satellite owned by Changsha Tianyi (CN) in LEO that was launched on Fri, 30 Aug 2019 UTC via a KUAIZHOU-1A launch vehicle from the Jiuquan Satellite Launch Center, China (JSC). Payload-class satellites include a variety of spacecraft equipped with specific instruments for various scientific and technological missions. These include communications satellites like Starlink; space stations such as the ISS; scientific satellites like the Hubble; Earth observation satellites from companies like Planet Labs, Umbra, and HawkEye 360; GPS; miniature CubeSats for education and research; and military/defense satellites.

Loading next visibility...
Identifier
44519, 2019-058A
Orbit
Decayed
Country
Flag of CNCN / PRC
Related business
Manufacturer
Changsha Tianyi
Mission
Decayed Commercial Technology
Bus & Motor
CUBESAT 6U, Unknown motor
Mass
~10 kg wet, 10 kg dry
Launch date (UTC)
2019-08-30 (7 years ago)
Launch vehicle
KUAIZHOU-1A
Launch site
Jiuquan Satellite Launch Center, China (JSC)
Object type
Payload
Rocket body
Debris
Shape & HBR
Box + 2 Pan, Unknown HBR
Radar Cross Section
0.126 m², Medium (>0.1 m² and < 1m²)

Expand to show TLE details & history
Last TLE update: 1 year ago

TLE from 1 year ago
0 XAIOXIANG-1 07
1 44519U 19058A   25026.82804971  .17542282  28734-5  41233-3 0  9996
2 44519  97.7093  65.9282 0009521 230.4271 129.6190 16.45695897296159
Epoch: 2025-01-26T19:52Z
TLE epoch observation values (Epoch: 2025-01-26T19:52:23.494Z)
Latitude
-0.00008°
Longitude
1.4734°
Altitude
157.912 km
Speed
7.809 km/s
True Right ascension
04h 23m 42s
True Declination
0° 00' 00"
Sunlit
Object was in full shadow at epoch
Visualization orbit readout
Latitude
Unknown
Longitude
Unknown
Altitude
Unknown
Speed
Unknown
Apparent Right ascension
Unknown
Apparent Declination
Unknown
Sunlit
N/A
Visualization observer readout
Local Sidereal Time
21:24:25
Azimuth
Unknown
Elevation
Unknown
Doppler factor
Unknown
Orbital elements
Apogee altitude
153.722 km
Perigee altitude
141.296 km
Semi-major axis
6,525.646 km
Eccentricity
0.00095
Inclination
97.7093°
RAAN
65.9282°
Arg. of periapsis
230.4271°
True anomaly
129.70298°
Mean anomaly
129.619°
Eccentric anomaly
129.661°
Mean motion
4.11726 °/min
Orbital period
87.44 mins
BSTAR
0.00041233
Loading maneuver chart data...
Computing Atmospheric mass density...
Loading historical data...
Loading historical data...
Loading historical data...
Loading historical data...
Loading historical data...
Loading historical data...
Loading historical data...
Other satellites on launch #58 in the year 2019 (2019-08-30 UTC)

Documentation

Showing up to 5 results
|